Regional Weather Roundup
Issued by NWS

Home | Current Version | Previous Version | Text Only | Print | Product List | Glossary Off
Versions: 1 2 3 4 5 6 7 8 9 10 11 12 13 14 15 16 17 18 19 20 21 22 23 24 25 26 27 28 29 30 31 32 33 34 35 36 37 38 39 40 41 42 43 44 45 46 47 48 49 50

000
ASUS43 KLOT 222309
RWRIL

ILLINOIS REGIONAL WEATHER ROUNDUP
NATIONAL WEATHER SERVICE CHICAGO/ROMEOVILLE IL
600 PM CDT MON MAY 22 2017

NOTE: "FAIR" INDICATES FEW OR NO CLOUDS BELOW 12,000 FEET WITH NO
SIGNIFICANT WEATHER AND/OR OBSTRUCTIONS TO VISIBILITY.

* THESE STATIONS ARE NOT UNDER NWS QUALITY CONTROL. THEY ALSO MAY NOT
  REPORT WEATHER SUCH AS PRECIPITATION OR FOG.

ILZ001-002-007-009-015-016-024-230000-
NORTHWEST ILLINOIS

CITY           SKY/WX    TMP DP  RH WIND       PRES   REMARKS
MOLINE         CLOUDY    64  54  69 SW12      29.88F
STERLING*      CLOUDY    65  55  70 SW8G16    29.89F
SAVANNA*       MOSUNNY   66  55  66 SW21G30   29.86S
$$

ILZ003-004-008-010-011-017-018-230000-
NORTH CENTRAL ILLINOIS

CITY           SKY/WX    TMP DP  RH WIND       PRES   REMARKS
ROCKFORD       CLOUDY    69  53  56 SW14G26   29.89S
FREEPORT*      PTSUNNY   65  54  65 SW20G29   29.89R
ROCHELLE*      PTSUNNY   66  54  63 SW23G29   29.90S
DE KALB*       CLOUDY    66  54  66 SW22G29   29.91F
PERU*          PTSUNNY   64  54  69 SW23      29.93F
$$

ILZ005-006-012>014-019>023-230000-
NORTHEAST ILLINOIS

CITY           SKY/WX    TMP DP  RH WIND       PRES   REMARKS
CHICAGO-OHARE  CLOUDY    70  49  47 SW17      29.90R
CHICAGO-MIDWAY CLOUDY    72  43  35 SW20G25   29.91R
AURORA         CLOUDY    68  53  58 SW15G24   29.91F
LANSING*       CLOUDY    71  46  40 SW15G22   29.93S
WAUKEGAN       CLOUDY    68  51  54 SW18G28   29.88S
DUPAGE AIRPORT CLOUDY    67  52  58 SW16G26   29.91S
KANKAKEE*      CLOUDY    70  46  43 SW15G23   29.95F
WHEELING       CLOUDY    69  50  50 SW14G21   29.90S
MORRIS*        LGT RAIN  67  53  61 SW22G28   29.93S
ROMEOVILLE*    CLOUDY    67  54  62 SW16G22   29.92S
NORTHERLY ISL    N/A     72  38  29 S13         N/A
$$

LMZ740>746-230000-
SOUTHERN LAKE MICHIGAN

STATION/POSITION SKY/WX   TEMP    WIND        PRES    VSBY  WAVE
                          AIR SEA DIR/SP/G                  HT/PER
                          (F)     (DEG/KT/KT) (MB)    (MI)  (FT/S)
SOUTHERN BUOY              50 45  150/  8/ 10 1013.1          1/ 3
WILMETTE HARBOR            64 54                N/A           1/ 2
BURNHAM HARBOR             72     180/ 12/ 20   N/A
CALUMET HARBOR             72     220/  9/ 20 1012.4R
BURNS HARBOR               70     200/ 17/ 24 1013.5S
MICHIGAN CITY              70     190/ 18/ 20   N/A
MICHIGAN CITY 6N           65 53  200/ 16/ 19   N/A           2/ 2
ST. JOSEPH                 63 56  210/ 10/ 12 1013.2          1
$$

ILZ025>027-034>036-040-047-049-050-058-095>099-230000-
WEST-CENTRAL ILLINOIS

CITY           SKY/WX    TMP DP  RH WIND       PRES   REMARKS
QUINCY         LGT RAIN  61  57  87 CALM      29.97F
GALESBURG*     CLOUDY    59  56  89 S13G21    29.92F
MACOMB*        LGT RAIN  59  58  94 S13       29.97F
JACKSONVILLE*  DRIZZLE   60  58  92 NW9       29.99F
PITTSFIELD*    LGT RAIN  63  58  84 N5        29.99F
$$

ILZ028>032-037-038-041>044-048-051>054-059>061-230000-
CENTRAL ILLINOIS

CITY           SKY/WX    TMP DP  RH WIND       PRES   REMARKS
PONTIAC        CLOUDY    64  57  77 W21G28    29.98R
BLOOMINGTON    CLOUDY    64  52  64 W21       30.00R
DECATUR        SUNNY     70  44  39 S15       29.98F
PEORIA         LGT RAIN  60  59  96 SW8       29.99F
LACON*         DRIZZLE   60  57  89 SW15G22   29.95F
LINCOLN*       CLOUDY    66  56  70 NW9G16    29.99R
SPRINGFIELD    LGT RAIN  64  56  75 NW18G25   30.00R
TAYLORVILLE    SUNNY     71  48  45 SW9       29.98F
$$

ILZ033-039-045-046-055>057-062-063-230000-
EAST-CENTRAL ILLINOIS

CITY           SKY/WX    TMP DP  RH WIND       PRES   REMARKS
CHAMPAIGN      PTSUNNY   71  41  33 SW18      29.99F
RANTOUL*       CLOUDY    72  45  38 SW15G21   29.98F
MATTOON        SUNNY     70  44  39 S12       29.99F
PARIS*         MOSUNNY   71  46  40 S9        30.00F
$$

ILZ079-100>102-230000-
SOUTHWEST ILLINOIS

CITY           SKY/WX    TMP DP  RH WIND       PRES   REMARKS
BELLEVILLE     MOSUNNY   72  47  39 S3        29.99F
CAHOKIA*       SUNNY     76  43  30 S9        29.97F
SPARTA*        MOSUNNY   72  47  41 CALM      29.99F
$$

ILZ064>066-069>071-074>076-080>082-084>086-088>090-092>094-230000-
SOUTH-CENTRAL ILLINOIS

CITY           SKY/WX    TMP DP  RH WIND       PRES   REMARKS
CARBONDALE     CLOUDY    73  46  38 S7        29.98F
CAIRO*         CLOUDY    73  46  37 NE5       29.97F
EFFINGHAM*     SUNNY     73  49  42 S10       30.01F
MARION         MOSUNNY   75  48  38 S6        29.99F
MT. VERNON       N/A     74  47  38 SW3       29.97F
CENTRALIA*     MOSUNNY   74  50  42 CALM      29.98F
SALEM*         SUNNY     73  44  34 S6        29.99F
METROPOLIS*    CLOUDY    73  47  40 CALM      29.99F
$$

ILZ067-068-072-073-078-083-087-091-230000-
SOUTHEAST ILLINOIS

CITY           SKY/WX    TMP DP  RH WIND       PRES   REMARKS
LAWRENCEVILLE  SUNNY     74  47  38 SW6       29.99F
FLORA*         SUNNY     74  47  37 S7        29.99F
FAIRFIELD*     SUNNY     73  46  38 CALM      29.97F
HARRISBURG*    CLOUDY    74  49  40 S3        29.99R
ROBINSON*      SUNNY     73  44  35 SW8       30.01S
CARMI*         MOSUNNY   74  48  39 SE8       29.97F
$$

ABBREVIATIONS USED IN REMARKS
   TC - TEMPERATURE IN CELSIUS
  WCI - WIND CHILL INDEX
   HX - HEAT INDEX
  VSB - VISIBILITY
$$





USA.gov is the U.S. government's official web portal to all federal, state and local government web resources and services.